Doha, Qatar

7:40 PM AST on February 06, 2016 (GMT +0300)
Doha International

Weather History for OTBD - March, 2013

Change the Weather History Date:

Friday, March 29, 2013

  Actual Average Record
Temperature  
Mean Temperature 76 °F -  
Max Temperature 86 °F 89 °F 100 °F (1998)
Min Temperature 66 °F 69 °F 64 °F (2003)
Cooling Degree Days 11    
Growing Degree Days 26 (Base 50)    
Moisture  
Dew Point 57 °F    
Average Humidity 51    
Maximum Humidity 78    
Minimum Humidity 10    
Precipitation  
Precipitation 0.00 in 0.01 in - ()
Sea Level Pressure  
Sea Level Pressure 29.93 in    
Wind  
Wind Speed 3 mph ()    
Max Wind Speed 12 mph    
Max Gust Speed -    
Visibility 6.7 miles    
Events      
Averages and records for this station are not official NWS values.
T = Trace of Precipitation, MM = Missing Value Source: Averaged Metar Reports

Daily Weather History Graph

Daily Weather History Graph

Search for Another Location

Airport or City:

Trip Planner

Search our weather history database for the weather conditions in past years. The results will help you decide how hot, cold, wet, or windy it might be!

Date:

Astronomy

Mar. 29, 2013 Rise Set
Actual Time 5:28 AM AST 5:48 PM AST
Civil Twilight 5:05 AM AST 6:11 PM AST
Nautical Twilight 4:38 AM AST 6:38 PM AST
Astronomical Twilight 4:11 AM AST 7:05 PM AST
Moon 8:03 PM AST (3/29) 6:36 AM AST (3/29)
Length of Visible Light 13h 06m
Length of Day
12h 20m
Waning Gibbous, 95% of the Moon is Illuminated
Mar 29
Waning Gibbous
Apr 3
Last Quarter
Apr 10
New
Apr 18
First Quarter
Apr 25
Full

Hourly Weather History & Observations

Time (AST) Temp. Heat Index Dew Point Humidity Pressure Visibility Wind Dir Wind Speed Gust Speed Precip Events Conditions
12:00 AM 71.6 °F - 60.8 °F 69% 29.92 in - SE 1.2 mph - N/A   Clear
1:00 AM 73.4 °F - 59.0 °F 61% 29.89 in - SW 3.5 mph - N/A   Clear
3:00 AM 71.6 °F - 55.4 °F 57% 29.89 in - SW 3.5 mph - N/A   Clear
3:30 AM 71.6 °F - 53.6 °F 53% 29.89 in - Variable 2.3 mph - N/A   Clear
4:00 AM 69.8 °F - 53.6 °F 56% 29.92 in - SW 2.3 mph - N/A   Clear
5:00 AM 69.8 °F - 55.4 °F 60% 29.92 in - SSW 2.3 mph - N/A   Clear
5:30 AM 68.0 °F - 55.4 °F 64% 29.95 in - Calm Calm - N/A   Clear
6:00 AM 66.2 °F - 55.4 °F 68% 29.95 in - East 1.2 mph - N/A   Clear
6:30 AM 68.0 °F - 57.2 °F 68% 29.95 in - Calm Calm - N/A   Clear
7:00 AM 71.6 °F - 57.2 °F 60% 29.95 in - Calm Calm - N/A   Clear
7:30 AM 75.2 °F - 57.2 °F 53% 29.98 in - NE 3.5 mph - N/A   Clear
8:00 AM 77.0 °F - 62.6 °F 61% 29.98 in - ENE 3.5 mph - N/A   Clear
8:30 AM 78.8 °F - 64.4 °F 61% 29.98 in - ESE 3.5 mph - N/A   Clear
9:00 AM 79 °F - 64 °F 52% 30.00 in 7 mi ESE 3.5 mph - -   Clear
9:00 AM 78.8 °F - 64.4 °F 61% 29.98 in - ESE 3.5 mph - N/A   Clear
9:30 AM 80.6 °F 82.3 °F 64.4 °F 58% 29.98 in - ESE 5.8 mph - N/A   Clear
10:00 AM 82.4 °F 83.9 °F 64.4 °F 54% 29.98 in - East 6.9 mph - N/A   Clear
10:30 AM 82.4 °F 84.6 °F 66.2 °F 58% 29.98 in - East 5.8 mph - N/A   Clear
11:00 AM 84.2 °F 85.6 °F 64.4 °F 51% 29.98 in - East 6.9 mph - N/A   Clear
12:00 PM 86.0 °F 86.6 °F 62.6 °F 45% 29.95 in - ESE 11.5 mph - N/A   Clear
12:30 PM 84.2 °F 83.8 °F 59.0 °F 42% 29.95 in - East 11.5 mph - N/A   Clear
1:00 PM 84.2 °F 83.5 °F 57.2 °F 40% 29.95 in - East 10.4 mph - N/A   Clear
2:00 PM 84.2 °F - 48.2 °F 29% 29.92 in - East 9.2 mph - N/A   Clear
3:00 PM 85 °F - 37 °F 10% 29.91 in 9 mi ESE 8.1 mph - -   Scattered Clouds
3:00 PM 86.0 °F - 37.4 °F 18% 29.89 in - ESE 8.1 mph - N/A   Clear
3:30 PM 84.2 °F - 41.0 °F 22% 29.89 in - East 8.1 mph - N/A   Clear
4:00 PM 84.2 °F - 41.0 °F 22% 29.89 in - East 5.8 mph - N/A   Clear
4:30 PM 84.2 °F - 39.2 °F 20% 29.89 in - East 5.8 mph - N/A   Clear
5:00 PM 82.4 °F - 37.4 °F 20% 29.89 in - East 4.6 mph - N/A   Clear
5:30 PM 82.4 °F - 42.8 °F 25% 29.89 in 6.2 mi ESE 4.6 mph - N/A   Scattered Clouds
6:00 PM 78.8 °F - 57.2 °F 47% 29.92 in 6.2 mi ESE 4.6 mph - N/A   Scattered Clouds
6:30 PM 78.8 °F - 59.0 °F 51% 29.92 in 6.2 mi ESE 4.6 mph - N/A   Scattered Clouds
7:00 PM 78.8 °F - 55.4 °F 44% 29.92 in 6.2 mi SE 3.5 mph - N/A   Scattered Clouds
8:00 PM 78.8 °F - 53.6 °F 42% 29.95 in 6.2 mi SSE 4.6 mph - N/A   Partly Cloudy
8:30 PM 78.8 °F - 60.8 °F 54% 29.92 in - ESE 3.5 mph - N/A   Clear
9:00 PM 77.0 °F - 62.6 °F 61% 29.92 in - ESE 3.5 mph - N/A   Clear
9:30 PM 77.0 °F - 66.2 °F 69% 29.92 in - East 3.5 mph - N/A   Clear
10:00 PM 75.2 °F - 66.2 °F 73% 29.92 in - East 3.5 mph - N/A   Clear
10:30 PM 75.2 °F - 68.0 °F 78% 29.92 in - Calm Calm - N/A   Clear
11:00 PM 75.2 °F - 66.2 °F 73% 29.92 in - Variable 2.3 mph - N/A   Clear
11:30 PM 73.4 °F - 64.4 °F 73% 29.92 in - Variable 2.3 mph - N/A   Clear